Tracking 30009 objects as of 7-Dec-2024
HD Live streaming from Space Station
objects crossing your sky now

STARLINK-32249

Track STARLINK-32249 now!
10-day predictions
STARLINK-32249 is classified as:


NORAD ID: 60444
Int'l Code: 2024-144V
Perigee: 481.6 km
Apogee: 483.2 km
Inclination: 53.2 °
Period: 94.1 minutes
Semi major axis: 6853 km
RCS: Unknown
Launch date: August 12, 2024
Source: United States (US)
Launch site: AIR FORCE EASTERN TEST RANGE (AFETR)
Your satellite tracking list
Your tracking list is empty




NASA's NSSDC Master Catalog

Two Line Element Set (TLE):
1 60444U 24144V   24341.82765966  .00000792  00000-0  38856-4 0  9998
2 60444  53.1597 183.4823 0001208  82.3520 277.7618 15.30191423 19254
Source of the keplerian elements: AFSPC